This is the latest recevied weather packets stored in our database for station/object WI0K. If no packets are shown the sender has not sent any weather packets the latest 10 day(s).
| Time | Temp. | Humidity | Pressure | Rain* | Wind** | Luminosity | Snow |
|---|---|---|---|---|---|---|---|
| 1777955523 | 8.89° C | 93% | 1012.9 hPa | 0.25 mm | - | 0 W/m² | - |
| 1777955472 | 8.89° C | 93% | 1012.8 hPa | 0.25 mm | - | 0 W/m² | - |
| 1777955223 | 8.89° C | 93% | 1012.8 hPa | 0.25 mm | - | 0 W/m² | - |
| 1777955172 | 8.89° C | 92% | 1012.9 hPa | 0.25 mm | - | 0 W/m² | - |
| 1777954922 | 8.89° C | 92% | 1012.9 hPa | 0.25 mm | - | 0 W/m² | - |
| 1777954871 | 8.89° C | 91% | 1013 hPa | 0.25 mm | - | 0 W/m² | - |
| 1777954622 | 8.89° C | 91% | 1013 hPa | 0.25 mm | - | 0 W/m² | - |
| 1777954321 | 8.89° C | 91% | 1013 hPa | 0.25 mm | - | 0 W/m² | - |
| 1777954020 | 8.89° C | 90% | 1012.9 hPa | 0.25 mm | - | 0 W/m² | - |
| 1777953720 | 9.44° C | 88% | 1012.8 hPa | 0.25 mm | - | 0 W/m² | - |
| 1777953669 | 10° C | 86% | 1012.6 hPa | 0.25 mm | - | 0 W/m² | - |
| 1777953419 | 10° C | 86% | 1012.6 hPa | 0.25 mm | - | 0 W/m² | - |
| 1777953118 | 10.56° C | 82% | 1012.6 hPa | 0 mm | - | 0 W/m² | - |
| 1777953069 | 11.11° C | 78% | 1012.6 hPa | 0 mm | - | 0 W/m² | - |
| 1777952818 | 11.11° C | 78% | 1012.6 hPa | 0 mm | - | 0 W/m² | - |
| 1777952517 | 11.11° C | 72% | 1012.5 hPa | 0 mm | - | 0 W/m² | - |
| 1777952216 | 11.67° C | 69% | 1012.5 hPa | 0 mm | - | 0 W/m² | - |
| 1777951916 | 11.67° C | 64% | 1012.3 hPa | 0 mm | - | 0 W/m² | - |
| 1777951615 | 11.67° C | 63% | 1012 hPa | 0 mm | - | 0 W/m² | - |
| 1777951315 | 11.67° C | 63% | 1011.9 hPa | 0 mm | - | 0 W/m² | - |
| 1777951014 | 11.67° C | 62% | 1011.9 hPa | 0 mm | - | 0 W/m² | - |
| 1777950955 | 11.67° C | 61% | 1011.9 hPa | 0 mm | - | 0 W/m² | - |
| 1777950713 | 11.67° C | 61% | 1011.9 hPa | 0 mm | - | 0 W/m² | - |
| 1777950660 | 11.67° C | 62% | 1011.8 hPa | 0 mm | - | 0 W/m² | - |
| 1777950413 | 11.67° C | 62% | 1011.8 hPa | 0 mm | - | 0 W/m² | - |
* Rain latest hour (hover to see other rain measurements)
** Current wind speed in m/s (hover to see current wind gust speed)